Temperature
22 21 20 21 27 32 32 33 30 31 30 29 29 28 29 28 27 25 21 20 20 19 19 19 19 19 19 19 19 19 19 19 19 19 19 19 19 19 19 19 19 19 19 19 19 19 19 19 19
20 20 21 26 31 32 33 31 30 30 29 28 27 27 27 25 23 21 20 19 19 19 19 18 19 19 19 19 19 19 19 19 19 19 19 19 19 19 19 19 19 19 19 19 19 19 18 19 19
21 21 25 31 31 33 31 30 29 29 28 28 27 27 26 24 22 21 20 19 19 19 19 18 18 19 19 19 19 19 19 19 19 19 19 18 18 18 19 19 19 19 19 19 19 19 18 18 18
22 24 27 31 33 32 32 30 30 29 28 27 28 27 25 22 21 20 19 19 19 18 19 18 18 18 19 19 19 19 19 19 19 19 19 18 18 18 18 18 18 18 18 19 19 19 19 18 18
23 27 31 31 32 32 32 30 29 30 29 28 28 27 24 21 20 20 19 19 19 19 19 18 18 18 19 19 19 18 19 20 19 19 18 18 18 18 18 18 18 18 18 18 18 19 18 18 17
26 29 31 31 31 31 31 30 29 30 28 28 28 27 24 21 20 20 20 20 19 19 19 18 18 18 19 19 18 18 19 20 19 19 19 18 18 18 18 18 18 18 18 18 18 18 18 18 17
27 30 30 31 32 31 32 30 30 30 28 28 28 28 24 21 20 20 20 19 20 19 19 18 17 18 19 19 19 18 19 19 19 18 19 18 18 18 18 18 18 18 18 18 18 18 18 18 18
27 29 30 31 31 32 30 28 29 29 28 26 27 28 26 20 20 20 19 19 19 19 19 18 18 18 18 18 19 18 18 18 18 18 18 18 18 18 18 18 18 18 17 18 18 18 17 17 17
26 29 30 32 32 32 30 29 27 27 26 25 25 25 25 21 20 20 19 19 18 18 18 18 18 18 18 18 18 18 18 18 18 18 18 18 17 17 17 17 18 18 18 18 18 17 17 17 17
27 29 31 31 31 31 30 30 28 27 27 25 25 23 23 21 21 20 19 19 19 18 18 18 18 18 18 18 18 17 17 17 17 16 17 17 17 17 17 17 18 18 18 18 18 17 17 17 17
28 30 30 29 29 29 30 29 29 29 29 28 27 24 22 21 21 20 20 20 19 18 18 18 17 18 18 18 18 18 18 17 17 16 16 17 17 17 17 17 17 17 17 17 17 17 17 17 17
27 29 29 29 28 29 29 29 28 29 29 27 26 24 22 22 21 20 19 19 19 18 18 18 17 17 18 18 17 17 17 17 17 17 16 16 16 17 17 17 17 17 17 17 17 17 17 17 17
28 29 28 28 29 29 29 29 28 28 26 25 24 23 22 22 22 21 20 19 18 18 18 18 18 19 18 18 17 17 17 17 17 17 17 17 17 17 17 17 17 17 17 17 17 17 17 16 16
28 28 28 29 29 29 29 29 28 28 26 24 24 23 23 22 21 21 20 19 19 19 19 20 20 21 21 20 19 17 17 17 17 17 17 17 17 17 17 17 17 17 17 18 18 17 17 17 16
27 28 29 29 29 28 29 29 29 28 26 25 24 23 23 22 21 21 20 20 19 19 19 19 20 21 22 21 19 18 17 17 17 17 17 17 18 17 17 17 18 17 17 17 17 17 17 17 17
26 28 28 30 29 28 28 30 31 28 27 26 24 23 22 21 21 21 21 20 19 19 19 18 19 20 21 20 19 17 17 17 17 17 17 17 18 17 17 17 17 18 17 17 17 17 17 18 17
27 27 28 29 29 29 28 30 30 27 26 26 24 23 21 21 20 20 20 20 20 19 19 19 20 20 19 19 18 17 17 17 17 17 17 17 17 17 17 17 18 17 17 17 17 17 17 18 17
27 27 28 28 28 28 28 29 30 25 24 24 22 21 21 20 20 20 20 20 20 19 19 19 19 19 18 18 17 17 17 17 17 17 17 17 17 17 17 17 17 17 18 17 17 17 17 17 17
27 27 27 27 27 27 27 28 28 25 24 23 21 21 20 20 19 19 19 19 19 19 19 19 19 19 19 18 17 17 18 18 18 18 18 18 18 17 17 17 17 17 18 17 17 17 17 17 17
25 25 26 27 26 27 26 25 24 23 22 21 20 20 20 20 19 19 18 18 18 18 18 18 18 18 18 18 18 18 18 19 19 20 21 20 19 18 18 18 17 17 18 17 17 17 17 16 16
25 25 26 25 26 26 26 25 24 22 20 19 18 19 19 19 19 18 17 17 17 17 17 17 17 17 18 18 18 17 17 16 17 19 19 19 20 19 19 19 18 18 17 17 17 17 17 17 17
26 25 25 25 25 26 25 25 26 24 22 21 19 19 16 14 15 16 16 15 15 16 15 15 16 17 17 17 16 16 16 16 17 17 18 18 18 18 18 18 18 18 17 17 18 18 17 17 17
25 25 25 24 24 25 25 25 27 24 24 22 20 18 16 15 14 15 14 14 14 14 14 14 15 15 16 16 16 15 15 15 16 16 17 18 17 18 17 17 17 17 17 17 17 17 17 17 17
24 24 24 24 24 23 24 25 26 26 26 23 19 17 16 15 14 15 15 15 14 14 14 14 14 14 14 14 14 15 14 14 15 16 15 15 16 17 16 16 17 17 17 17 17 17 17 17 16
23 22 22 22 23 23 25 25 25 23 22 21 19 17 16 14 14 14 14 14 14 14 14 14 14 14 13 13 13 14 14 14 14 15 14 14 15 15 16 16 16 17 17 17 16 16 16 16 16
22 22 20 20 22 23 22 23 24 21 19 18 16 16 15 14 12 13 13 13 13 13 14 14 13 14 14 13 14 14 14 14 13 14 14 14 15 16 15 15 16 16 16 16 16 16 16 16 16
19 21 19 19 19 19 22 22 21 20 19 18 17 16 15 13 12 13 13 12 13 13 13 13 13 13 13 13 14 13 13 13 13 14 14 15 15 15 14 16 16 16 16 16 16 16 16 16 16
18 19 16 17 18 18 20 20 18 19 19 19 18 17 15 13 12 13 13 12 12 12 13 13 13 13 13 13 13 13 13 13 13 14 14 14 14 14 15 15 15 15 15 15 15 15 15 15 15
20 20 20 19 19 18 18 20 20 20 17 16 16 15 14 13 13 13 13 12 12 12 13 13 13 13 13 13 13 13 13 13 13 13 13 13 13 14 14 15 15 14 15 16 15 14 14 14 14
21 20 20 18 18 18 17 18 18 17 15 15 14 13 12 13 13 13 12 12 11 11 12 12 12 12 12 12 12 13 13 12 12 13 13 13 13 14 14 14 14 15 15 16 16 14 13 13 13
Wind_Speed
7 7 5 3 5 4 3 4 2 4 5 3 5 3 3 6 4 4 10 12 14 14 17 17 17 15 13 12 13 14 16 17 18 16 15 14 13 11 11 10 10 9 9 8 7 7 9 8 8
5 5 5 4 5 2 4 3 4 4 5 6 5 2 3 6 6 10 12 12 15 14 15 16 17 15 13 12 12 13 14 16 16 16 15 14 13 11 10 10 10 9 8 7 6 5 7 8 8
6 6 4 4 4 3 3 4 5 6 8 5 3 3 3 5 8 11 12 14 14 12 12 15 16 15 14 13 13 13 13 14 14 14 14 13 12 11 10 9 9 9 7 6 6 5 5 6 9
6 5 5 6 3 3 2 6 6 8 6 3 3 6 5 6 9 10 15 14 13 11 10 15 13 14 13 12 13 14 13 13 13 13 12 12 11 10 10 7 7 7 6 6 5 5 4 4 6
6 5 8 9 5 2 2 6 7 7 5 6 4 6 7 9 11 14 15 14 13 11 11 13 12 12 11 9 10 14 14 13 11 10 9 8 8 8 8 7 5 5 4 4 3 2 3 4 4
7 5 9 11 7 4 5 7 9 7 6 7 5 9 9 10 12 14 15 14 13 12 11 14 12 11 12 9 7 9 11 12 11 10 8 7 6 6 6 6 5 4 3 2 2 2 1 3 4
11 9 14 11 7 7 7 9 12 9 8 7 7 9 8 11 12 14 14 13 11 10 9 11 12 12 11 11 10 10 10 10 10 9 8 7 7 7 6 6 6 6 5 4 3 4 4 4 4
6 8 14 12 10 7 4 8 9 11 7 4 6 5 9 13 14 15 14 12 10 10 8 9 11 12 11 10 9 9 10 10 10 10 9 8 8 8 8 6 7 5 5 6 7 7 7 5 6
5 9 13 12 9 4 5 9 9 6 7 7 4 1 8 20 19 17 14 12 11 11 10 9 9 10 10 10 10 7 7 6 6 9 10 9 10 10 10 9 5 4 6 7 8 9 9 8 11
9 12 10 1 2 5 6 11 12 10 11 9 8 7 15 21 20 19 18 16 14 13 12 11 10 10 10 9 9 9 9 9 8 8 8 9 7 5 5 3 4 6 7 7 8 9 9 10 13
10 12 3 2 2 6 5 9 10 12 12 12 12 14 20 20 19 18 17 16 15 14 13 11 10 9 9 8 8 9 8 8 8 8 8 7 5 6 7 8 7 8 9 9 8 9 10 8 8
8 10 6 3 2 5 4 8 10 11 4 4 10 16 20 20 19 17 16 15 14 14 13 12 11 9 9 8 8 9 8 8 8 9 10 8 7 6 7 4 5 5 7 5 5 5 4 5 7
12 8 9 8 7 6 5 9 11 11 7 7 12 15 18 18 17 16 15 14 13 13 13 13 13 11 10 9 8 9 8 8 9 9 10 10 8 7 7 7 7 7 7 6 6 4 5 5 6
8 10 8 8 6 4 5 5 9 8 10 7 9 13 15 17 17 15 14 13 12 13 14 14 15 13 11 10 10 9 9 9 9 10 11 11 10 8 7 6 8 7 7 9 5 5 6 5 6
6 10 12 12 8 4 5 8 9 8 6 7 7 9 11 13 14 14 13 12 11 11 11 13 14 14 13 12 11 10 9 10 10 11 11 11 11 10 9 7 7 6 7 9 8 8 7 7 7
10 12 13 13 11 6 7 13 12 6 4 4 5 6 8 10 12 12 10 10 11 10 10 11 11 13 13 11 9 8 8 8 9 11 11 11 13 13 10 8 9 9 7 7 6 5 8 7 6
13 14 15 11 9 7 11 14 6 8 1 3 4 5 7 8 10 10 10 10 11 10 9 10 12 13 12 11 8 7 6 5 8 10 11 10 13 15 12 9 7 8 8 6 5 4 7 6 5
10 13 12 13 8 10 15 17 6 6 4 4 5 5 6 7 7 8 8 8 8 9 9 10 10 9 8 6 5 3 4 8 15 15 15 15 15 15 13 9 10 10 9 6 6 5 6 6 5
7 9 10 8 2 7 11 14 11 3 1 3 5 5 6 6 7 7 6 6 7 7 9 10 10 8 6 5 6 4 2 3 5 11 19 18 19 18 11 9 10 10 10 8 7 6 6 6 5
9 10 10 5 2 5 6 7 4 3 1 2 3 5 6 8 8 8 7 5 5 5 3 2 4 4 5 6 8 7 6 10 13 13 15 16 17 16 13 11 10 11 9 10 9 7 6 5 7
10 12 11 9 7 6 7 11 10 5 4 5 5 6 7 8 10 9 8 6 8 4 1 0 1 1 2 5 7 7 8 9 9 14 14 12 16 14 12 12 11 11 10 9 9 9 10 7 7
6 5 7 9 10 10 9 12 12 11 9 7 7 8 10 10 8 8 9 8 7 3 2 2 3 2 2 2 5 9 10 14 18 18 15 11 10 9 11 11 12 12 9 10 10 11 8 8 7
6 2 8 10 12 15 14 13 10 11 12 9 7 6 7 8 7 7 8 8 4 2 2 2 3 3 1 1 4 7 12 15 16 16 16 12 9 7 9 9 9 9 8 9 10 9 8 7 7
9 9 11 12 13 18 20 19 18 9 11 11 7 6 5 6 6 5 5 4 5 5 4 3 3 1 1 2 4 7 12 17 18 17 15 11 6 5 8 8 7 7 7 8 10 8 8 8 8
13 15 13 15 16 17 13 15 13 6 6 6 7 7 6 7 6 6 6 6 6 5 2 2 3 3 2 4 6 8 10 12 8 8 9 5 1 1 4 7 6 5 8 9 9 9 9 9 9
9 13 13 12 14 10 4 8 4 7 7 7 6 5 6 8 7 8 8 9 9 9 7 4 1 2 3 6 8 8 8 6 3 3 3 1 1 1 4 3 5 5 7 7 6 7 8 7 8
5 5 2 5 10 10 10 8 3 8 7 7 7 6 7 7 6 7 9 10 10 10 9 7 6 9 9 8 8 8 7 5 4 3 4 3 3 2 2 2 5 6 4 3 4 5 6 7 8
1 5 2 2 5 8 10 9 7 10 10 9 7 5 6 5 5 5 7 9 10 10 9 8 8 8 8 8 6 4 5 5 6 6 6 5 2 1 1 1 4 4 3 3 4 5 5 6 8
8 7 6 4 5 5 8 3 1 2 6 7 4 2 3 2 2 3 5 6 7 8 8 6 3 4 6 6 6 6 6 5 7 6 4 3 3 3 3 3 4 4 3 4 5 4 5 6 8
6 7 7 7 9 7 9 6 5 3 7 7 5 3 2 3 4 5 4 5 5 4 5 5 5 4 5 4 3 6 6 7 7 7 6 6 5 4 3 1 3 4 3 3 3 4 5 6 8
Wind_Direction
211 209 226 241 241 232 84 92 91 144 149 122 109 65 54 37 21 73 127 133 142 147 143 156 155 156 153 147 142 135 134 144 148 150 148 147 147 142 136 129 118 109 103 103 112 134 126 113 105
204 199 230 247 266 225 92 102 122 132 122 125 109 87 69 70 68 118 135 135 144 148 150 154 151 155 152 150 146 137 132 138 144 146 149 150 151 148 141 135 124 117 111 109 108 117 135 131 123
220 228 261 260 267 355 68 141 121 126 136 137 112 61 59 80 112 128 127 141 143 146 151 137 149 155 153 152 150 145 141 141 144 148 154 157 158 153 142 133 128 120 109 99 104 107 129 146 140
219 219 238 253 247 55 26 152 154 150 145 158 143 112 94 92 121 125 134 142 144 146 151 127 147 150 150 155 158 150 147 146 147 153 156 162 164 158 149 148 136 122 120 110 104 118 139 152 143
226 245 242 238 231 170 148 166 173 165 151 155 160 119 111 117 119 133 142 148 147 150 145 134 142 144 145 156 165 158 155 151 149 148 153 165 166 159 155 154 138 123 120 124 120 120 137 146 146
217 241 246 237 210 190 174 184 196 186 159 156 159 134 128 135 140 144 149 151 154 153 149 136 144 149 148 156 168 157 151 153 153 155 158 170 172 172 173 164 161 156 160 169 160 203 174 151 164
242 234 248 257 242 213 192 200 210 198 187 175 164 149 130 153 149 148 147 153 154 151 155 142 154 154 154 159 169 173 164 166 163 168 172 181 189 194 198 199 199 198 202 216 230 232 230 202 196
254 253 247 241 236 227 171 200 213 199 177 149 174 164 155 159 152 149 150 156 159 160 160 163 161 163 170 170 178 184 171 175 177 184 185 183 201 215 219 223 221 230 234 227 238 239 235 231 229
226 240 240 231 229 235 196 200 186 162 157 171 167 82 126 150 156 155 159 167 171 173 174 178 170 166 179 178 164 176 167 175 183 193 189 195 218 214 218 212 191 224 246 243 247 245 238 237 233
219 234 241 229 308 293 240 209 169 175 176 175 164 138 140 153 161 166 172 177 181 181 179 187 181 182 185 186 172 194 188 198 201 206 201 213 225 246 277 245 187 229 244 251 251 250 249 245 244
225 245 240 185 275 303 259 202 180 192 190 183 169 150 153 161 170 176 180 182 183 185 184 189 187 192 194 195 196 207 201 209 208 214 223 232 235 235 237 239 219 218 219 232 225 225 234 243 270
229 231 238 250 281 292 268 202 190 199 102 146 155 155 162 171 177 182 185 187 183 188 191 187 190 191 202 208 212 223 218 218 224 218 220 228 225 227 238 267 271 249 225 221 225 220 236 253 259
231 228 225 249 268 277 267 221 203 198 123 114 144 160 173 181 182 184 186 190 188 190 195 189 196 195 198 214 227 234 235 225 231 231 229 230 228 229 227 225 235 248 272 252 231 237 243 252 258
227 235 237 244 266 254 238 204 211 186 169 162 165 172 183 186 187 185 188 190 192 195 197 194 197 198 204 213 225 235 243 247 245 243 235 231 240 246 247 233 243 238 260 273 280 273 267 269 273
228 231 227 225 226 211 236 214 212 159 155 178 186 177 183 190 191 193 193 195 199 204 200 201 201 201 206 215 223 233 243 250 255 250 240 235 237 247 255 255 263 262 257 267 276 266 268 267 258
221 228 228 205 206 183 227 225 192 146 167 163 165 169 174 185 195 197 198 202 205 211 205 208 206 208 212 216 224 237 248 255 255 256 246 237 242 246 251 255 248 250 249 252 254 264 263 264 288
217 225 222 194 200 213 221 236 134 53 28 106 112 147 154 168 188 198 204 209 209 207 202 211 213 212 214 221 226 229 239 269 280 277 270 258 257 256 257 270 273 278 260 254 257 254 265 283 283
216 227 225 225 171 221 227 238 202 43 18 88 107 127 144 156 164 181 198 209 199 195 195 205 214 215 215 224 244 272 354 9 344 321 299 277 260 257 260 267 269 262 258 251 258 251 253 270 290
299 250 226 220 123 227 228 237 243 315 297 126 139 153 155 166 163 161 166 179 172 174 186 195 199 198 201 217 231 216 144 174 257 273 276 263 256 252 246 252 259 257 255 253 255 253 258 272 283
236 244 238 203 212 236 194 211 219 240 210 94 134 158 164 159 157 156 144 133 132 136 152 188 218 209 214 227 223 220 208 229 231 226 238 230 236 238 232 236 251 257 259 248 252 253 253 259 265
222 235 234 232 213 238 242 226 193 171 162 136 118 120 116 111 106 105 108 111 106 100 125 246 334 317 276 263 260 252 231 239 239 248 254 240 222 211 218 222 242 257 259 259 254 252 253 252 255
235 225 257 248 251 243 225 256 204 175 170 156 133 118 102 89 88 93 92 74 56 40 7 23 38 31 343 291 241 229 229 235 236 237 242 248 249 228 225 226 233 243 255 255 245 244 250 251 253
270 239 250 255 258 263 251 255 238 180 188 163 141 122 103 100 97 102 106 103 88 80 69 86 110 98 62 282 272 256 259 255 252 253 245 239 257 268 251 244 238 234 249 259 254 249 248 247 255
254 240 242 249 252 251 247 251 256 214 198 151 143 127 119 105 107 99 83 98 108 120 146 163 154 92 20 310 295 281 276 267 255 248 240 232 248 289 288 263 244 239 240 248 255 250 251 251 249
231 235 241 235 231 243 240 239 254 91 97 135 142 123 103 81 70 64 52 39 37 45 59 198 241 291 299 310 328 318 306 287 259 236 225 228 265 301 321 293 274 248 247 247 250 254 251 251 252
236 245 249 257 260 260 187 240 246 105 114 125 122 114 102 83 65 57 44 37 27 23 15 8 22 5 5 344 358 356 352 326 284 227 193 139 86 60 243 250 305 268 249 248 245 251 253 255 255
225 239 272 272 264 266 256 260 221 155 145 148 140 130 96 76 66 58 51 44 34 30 29 22 30 26 18 20 19 10 15 351 337 12 85 98 101 147 213 50 279 269 265 292 289 263 256 258 264
31 123 145 232 271 260 237 230 227 191 182 170 152 117 95 95 69 40 43 42 37 36 43 38 44 33 12 1 9 27 37 19 36 50 61 67 78 77 215 241 293 291 299 294 277 261 262 271 275
173 212 219 212 234 271 281 249 57 192 145 144 131 95 79 73 61 37 30 30 39 41 40 32 47 29 352 348 2 8 42 72 83 80 68 76 69 65 47 16 313 299 305 300 288 291 292 285 286
275 262 254 251 250 244 274 288 79 103 117 134 129 82 53 18 24 15 2 2 13 24 32 16 3 11 2 346 31 30 27 58 85 102 111 102 98 98 103 250 284 295 303 315 308 297 307 307 303
Height
1521 1520 1521 1521 1514 1497 1496 1496 1500 1501 1503 1506 1508 1509 1510 1513 1516 1526 1530 1530 1533 1536 1538 1538 1540 1543 1545 1548 1550 1552 1554 1556 1556 1558 1560 1561 1562 1562 1563 1564 1565 1566 1566 1567 1567 1568 1568 1569 1570
1522 1523 1525 1520 1503 1499 1497 1499 1500 1502 1506 1510 1512 1513 1514 1518 1523 1527 1530 1531 1534 1537 1540 1542 1542 1544 1547 1549 1551 1553 1555 1557 1558 1559 1561 1562 1563 1564 1565 1565 1566 1567 1568 1569 1569 1569 1569 1570 1570
1522 1524 1523 1510 1503 1498 1501 1502 1504 1506 1509 1511 1514 1516 1518 1522 1525 1529 1531 1532 1535 1539 1542 1544 1543 1545 1548 1550 1552 1554 1556 1557 1559 1560 1562 1563 1564 1566 1567 1568 1569 1569 1570 1570 1570 1570 1570 1570 1570
1525 1526 1521 1509 1499 1500 1499 1502 1506 1508 1511 1513 1514 1517 1522 1526 1527 1529 1530 1533 1537 1541 1545 1544 1546 1548 1550 1551 1553 1555 1557 1558 1560 1561 1563 1564 1566 1567 1568 1569 1570 1571 1572 1572 1572 1571 1571 1571 1571
1525 1521 1511 1505 1498 1499 1501 1503 1506 1507 1510 1513 1514 1518 1524 1528 1527 1529 1532 1535 1539 1543 1546 1546 1548 1550 1552 1553 1554 1556 1558 1559 1561 1562 1564 1566 1568 1569 1569 1570 1571 1572 1573 1573 1573 1572 1572 1571 1571
1523 1516 1508 1504 1499 1499 1502 1505 1507 1508 1512 1514 1516 1519 1525 1528 1529 1532 1535 1537 1540 1544 1547 1548 1548 1551 1552 1554 1556 1557 1558 1560 1561 1563 1564 1567 1568 1568 1569 1570 1570 1571 1572 1572 1572 1572 1572 1571 1571
1519 1511 1506 1500 1497 1499 1501 1505 1506 1508 1512 1514 1516 1518 1526 1529 1531 1533 1536 1539 1542 1545 1548 1549 1549 1551 1552 1554 1556 1558 1560 1561 1562 1563 1564 1566 1568 1568 1569 1570 1570 1570 1570 1571 1571 1571 1571 1571 1571
1517 1512 1504 1501 1500 1497 1502 1506 1506 1508 1512 1516 1517 1517 1523 1529 1531 1533 1536 1540 1542 1545 1548 1550 1551 1552 1553 1555 1557 1560 1561 1562 1563 1564 1564 1565 1567 1568 1569 1569 1570 1570 1570 1570 1570 1570 1570 1571 1571
1518 1512 1504 1497 1497 1497 1502 1504 1507 1510 1513 1516 1517 1519 1522 1524 1529 1532 1536 1539 1541 1543 1546 1549 1551 1552 1554 1557 1559 1560 1561 1563 1564 1564 1564 1565 1567 1568 1569 1569 1568 1568 1568 1568 1568 1568 1568 1568 1568
1513 1506 1498 1496 1500 1499 1500 1501 1505 1510 1512 1515 1517 1520 1522 1524 1527 1530 1534 1537 1540 1542 1545 1548 1551 1553 1555 1558 1560 1560 1562 1563 1565 1565 1566 1565 1567 1567 1568 1569 1567 1567 1568 1568 1567 1567 1566 1566 1567
1508 1501 1499 1503 1505 1502 1500 1501 1504 1505 1507 1511 1514 1518 1521 1524 1527 1530 1533 1536 1539 1541 1544 1547 1549 1552 1555 1558 1560 1561 1562 1563 1564 1564 1564 1565 1565 1565 1566 1567 1567 1567 1567 1567 1566 1565 1565 1565 1565
1508 1504 1505 1504 1505 1503 1501 1501 1504 1505 1507 1511 1514 1517 1521 1524 1527 1530 1533 1535 1537 1540 1544 1547 1549 1551 1553 1557 1559 1560 1561 1562 1562 1564 1564 1564 1563 1564 1564 1565 1566 1566 1567 1566 1566 1565 1564 1563 1563
1506 1502 1504 1505 1504 1503 1504 1502 1503 1506 1511 1514 1515 1517 1520 1523 1526 1529 1533 1536 1538 1540 1543 1544 1545 1548 1550 1554 1557 1559 1561 1562 1562 1563 1563 1563 1563 1564 1564 1562 1563 1563 1564 1565 1565 1564 1562 1562 1560
1503 1503 1503 1503 1502 1502 1502 1502 1504 1505 1510 1515 1516 1516 1519 1521 1525 1528 1532 1535 1537 1539 1540 1542 1543 1545 1548 1550 1552 1555 1558 1560 1561 1562 1563 1562 1563 1563 1563 1562 1563 1563 1561 1562 1563 1562 1561 1560 1559
1505 1503 1501 1500 1501 1502 1503 1501 1502 1505 1509 1512 1514 1516 1518 1522 1525 1528 1532 1535 1537 1540 1542 1542 1543 1545 1547 1549 1551 1554 1558 1560 1561 1561 1561 1561 1561 1562 1562 1562 1561 1560 1559 1558 1560 1559 1559 1559 1558
1503 1502 1499 1493 1498 1501 1505 1497 1495 1502 1507 1509 1512 1515 1517 1520 1524 1527 1530 1533 1535 1538 1540 1541 1543 1544 1546 1549 1551 1554 1556 1557 1558 1560 1561 1561 1560 1559 1559 1560 1560 1559 1557 1556 1556 1557 1558 1558 1557
1500 1500 1497 1491 1497 1498 1502 1494 1493 1502 1505 1507 1511 1513 1516 1519 1522 1525 1528 1531 1533 1535 1536 1538 1540 1542 1544 1547 1549 1551 1552 1554 1556 1558 1558 1559 1560 1559 1558 1557 1558 1557 1556 1555 1553 1553 1554 1556 1555
1497 1497 1494 1492 1494 1499 1498 1495 1493 1503 1507 1508 1511 1513 1515 1518 1520 1523 1526 1529 1531 1532 1534 1535 1538 1540 1542 1545 1547 1547 1548 1549 1552 1554 1554 1554 1555 1556 1555 1554 1555 1555 1556 1553 1551 1551 1552 1552 1552
1497 1497 1496 1494 1496 1499 1499 1497 1495 1504 1507 1509 1512 1513 1515 1517 1519 1521 1523 1525 1527 1528 1530 1532 1534 1536 1539 1541 1543 1543 1542 1542 1550 1550 1546 1544 1545 1550 1549 1549 1553 1552 1553 1552 1550 1550 1549 1548 1549
1504 1504 1499 1496 1498 1499 1501 1503 1506 1508 1508 1510 1512 1513 1515 1517 1519 1520 1521 1524 1525 1526 1528 1529 1531 1532 1533 1534 1535 1536 1534 1531 1530 1530 1534 1533 1533 1539 1543 1542 1547 1549 1549 1547 1547 1546 1546 1544 1545
1502 1502 1500 1500 1498 1497 1499 1502 1502 1507 1510 1512 1513 1514 1515 1516 1518 1520 1521 1523 1522 1524 1525 1526 1527 1527 1527 1527 1528 1527 1526 1524 1523 1523 1522 1525 1526 1528 1534 1535 1540 1543 1543 1543 1542 1543 1543 1542 1542
1499 1500 1500 1502 1504 1498 1499 1505 1491 1498 1504 1509 1512 1514 1516 1516 1518 1520 1521 1521 1520 1520 1522 1522 1521 1521 1522 1522 1521 1520 1518 1516 1514 1514 1516 1519 1521 1524 1527 1530 1534 1537 1538 1538 1538 1539 1539 1539 1538
1500 1501 1502 1503 1505 1502 1497 1504 1488 1493 1497 1504 1511 1514 1515 1517 1518 1520 1521 1520 1518 1518 1519 1519 1518 1518 1519 1519 1518 1516 1513 1511 1509 1508 1509 1512 1517 1519 1521 1526 1531 1530 1531 1534 1534 1534 1534 1535 1534
1503 1504 1504 1504 1505 1511 1498 1498 1490 1483 1485 1498 1510 1514 1515 1516 1518 1519 1520 1521 1520 1519 1518 1518 1518 1518 1517 1516 1515 1512 1508 1504 1501 1502 1503 1504 1508 1512 1516 1522 1526 1525 1527 1531 1532 1531 1530 1531 1530
1503 1507 1511 1510 1505 1500 1487 1491 1487 1492 1496 1500 1508 1513 1515 1516 1517 1517 1518 1518 1518 1517 1517 1517 1517 1516 1515 1514 1512 1508 1503 1497 1496 1498 1500 1503 1506 1511 1513 1518 1521 1523 1526 1527 1528 1528 1526 1527 1527
1502 1504 1515 1516 1506 1493 1497 1495 1491 1497 1502 1507 1511 1513 1514 1515 1516 1516 1515 1514 1514 1513 1513 1515 1516 1516 1514 1511 1509 1505 1502 1498 1498 1498 1499 1503 1505 1508 1512 1514 1518 1521 1522 1522 1522 1522 1523 1522 1522
1511 1507 1512 1518 1515 1515 1498 1492 1497 1499 1504 1507 1510 1512 1514 1516 1516 1517 1516 1514 1513 1512 1512 1513 1515 1514 1512 1509 1506 1503 1501 1499 1500 1500 1501 1504 1504 1506 1508 1510 1518 1519 1518 1515 1516 1518 1519 1518 1519
1511 1511 1528 1524 1522 1518 1501 1502 1510 1497 1501 1504 1507 1510 1514 1516 1516 1517 1516 1515 1513 1512 1511 1511 1513 1513 1511 1509 1507 1503 1500 1500 1501 1501 1501 1502 1504 1506 1508 1511 1514 1515 1514 1512 1512 1514 1514 1515 1515
1506 1508 1508 1513 1514 1519 1514 1497 1494 1492 1501 1507 1511 1513 1515 1516 1515 1516 1516 1516 1514 1512 1512 1513 1513 1512 1511 1510 1507 1504 1502 1502 1504 1502 1502 1502 1504 1506 1508 1508 1509 1510 1509 1508 1509 1509 1509 1510 1511
1494 1496 1500 1512 1512 1512 1517 1507 1501 1503 1507 1509 1512 1515 1517 1517 1516 1516 1516 1515 1515 1514 1514 1514 1513 1512 1511 1511 1508 1505 1504 1505 1506 1505 1504 1503 1503 1503 1504 1506 1506 1506 1506 1504 1505 1505 1507 1507 1507